TimeEST,TemperatureF,Dew PointF,Humidity,Sea Level PressureIn,VisibilityMPH,Wind Direction,Wind SpeedMPH,Gust SpeedMPH,PrecipitationIn,Events,Conditions,WindDirDegrees,DateUTC
12:53 AM,30.0,23.0,75,29.91,9.0,Calm,Calm,-,N/A,,Clear,0,2013-02-24 05:53:00
1:53 AM,30.0,23.0,75,29.93,9.0,Calm,Calm,-,N/A,,Clear,0,2013-02-24 06:53:00
2:53 AM,28.0,23.0,81,29.92,8.0,Calm,Calm,-,N/A,,Mostly Cloudy,0,2013-02-24 07:53:00
3:53 AM,27.0,23.0,85,29.93,7.0,SW,4.6,-,N/A,,Partly Cloudy,230,2013-02-24 08:53:00
4:31 AM,26.6,23.0,86,29.90,6.0,West,4.6,-,N/A,,Mostly Cloudy,270,2013-02-24 09:31:00
4:53 AM,27.0,24.1,89,29.94,6.0,Calm,Calm,-,N/A,,Overcast,0,2013-02-24 09:53:00
5:53 AM,28.0,23.0,81,29.95,6.0,Calm,Calm,-,N/A,,Haze,0,2013-02-24 10:53:00
6:53 AM,27.0,23.0,85,29.97,6.0,West,3.5,-,N/A,,Overcast,260,2013-02-24 11:53:00
7:53 AM,28.0,23.0,81,29.99,5.0,West,9.2,-,N/A,,Haze,260,2013-02-24 12:53:00
8:53 AM,28.0,23.0,81,30.01,6.0,West,12.7,-,N/A,,Haze,260,2013-02-24 13:53:00
9:53 AM,28.9,21.9,75,30.01,6.0,WSW,11.5,-,N/A,,Haze,250,2013-02-24 14:53:00
10:53 AM,28.9,21.0,72,30.03,9.0,West,13.8,19.6,N/A,,Overcast,260,2013-02-24 15:53:00
11:53 AM,28.9,19.9,69,30.04,10.0,West,8.1,20.7,N/A,,Overcast,270,2013-02-24 16:53:00
12:53 PM,28.9,19.9,69,30.05,10.0,West,11.5,-,N/A,,Overcast,270,2013-02-24 17:53:00
1:53 PM,28.0,19.0,69,30.07,10.0,WNW,10.4,-,N/A,,Overcast,290,2013-02-24 18:53:00
2:53 PM,27.0,19.9,75,30.09,8.0,NW,11.5,-,N/A,,Overcast,310,2013-02-24 19:53:00
3:17 PM,28.4,21.2,74,30.04,10.0,WSW,8.1,-,N/A,,Overcast,250,2013-02-24 20:17:00
3:53 PM,28.9,19.0,67,30.10,10.0,West,10.4,-,N/A,,Overcast,270,2013-02-24 20:53:00
4:53 PM,30.0,18.0,61,30.12,10.0,West,8.1,-,N/A,,Overcast,260,2013-02-24 21:53:00
5:53 PM,30.0,18.0,61,30.13,10.0,West,6.9,-,N/A,,Overcast,260,2013-02-24 22:53:00
6:53 PM,30.0,18.0,61,30.15,10.0,WSW,5.8,-,N/A,,Overcast,240,2013-02-24 23:53:00
7:53 PM,30.0,19.0,64,30.17,10.0,WSW,4.6,-,N/A,,Overcast,240,2013-02-25 00:53:00
8:53 PM,28.9,19.0,67,30.17,10.0,WSW,4.6,-,N/A,,Overcast,240,2013-02-25 01:53:00
9:53 PM,28.9,19.0,67,30.18,10.0,SW,3.5,-,N/A,,Overcast,230,2013-02-25 02:53:00
10:53 PM,28.9,19.0,67,30.17,10.0,SW,4.6,-,N/A,,Overcast,230,2013-02-25 03:53:00
11:53 PM,28.0,19.0,69,30.17,10.0,WSW,3.5,-,N/A,,Mostly Cloudy,250,2013-02-25 04:53:00